USA 164 (MILSTAR-2 3)

Last updated on Sat Jul 05 2025 00:02:43 GMT+0000 (Coordinated Universal Time)

1 27168U 02001A 25185.21223975 .00000102 00000+0 00000+0 0 9990 2 27168 10.7621 23.9029 0099542 8.2999 345.5828 1.00273791 29460
UTC large
Height (km)
Speed (km/s)
/
Latitude / Longitude
Inclination (degrees)
Orbital Period (minutes)
Azimuth
Elevation
Range (km)
Doppler Factor

Next 0 passes for location: London (51.5072 / 0.1276)

Sorry there are no passes over London.